This is the latest recevied weather packets stored in our database for station/object R1CBW-13. If no packets are shown the sender has not sent any weather packets the latest 10 day(s).
| Time | Temp. | Humidity | Pressure | Rain* | Wind** | Luminosity | Snow |
|---|---|---|---|---|---|---|---|
| 1776936013 | 3.89° C | 43% | 1005.4 hPa | 0 mm | - | - | - |
| 1776935953 | 4.44° C | 42% | 1005.4 hPa | 0 mm | - | - | - |
| 1776935893 | 3.89° C | 42% | 1005.4 hPa | 0 mm | - | - | - |
| 1776935833 | 4.44° C | 40% | 1005.4 hPa | 0 mm | - | - | - |
| 1776935773 | 4.44° C | 41% | 1005.4 hPa | 0 mm | - | - | - |
| 1776935713 | 3.33° C | 42% | 1005.4 hPa | 0 mm | - | - | - |
| 1776935653 | 3.89° C | 42% | 1005.4 hPa | 0 mm | - | - | - |
| 1776935593 | 2.78° C | 42% | 1005.5 hPa | 0 mm | - | - | - |
| 1776935533 | 3.33° C | 42% | 1005.4 hPa | 0 mm | - | - | - |
| 1776935473 | 3.89° C | 41% | 1005.4 hPa | 0 mm | - | - | - |
| 1776935413 | 3.89° C | 40% | 1005.3 hPa | 0 mm | - | - | - |
| 1776935353 | 3.33° C | 41% | 1005.4 hPa | 0 mm | - | - | - |
| 1776935293 | 3.89° C | 41% | 1005.3 hPa | 0 mm | - | - | - |
| 1776935233 | 3.33° C | 42% | 1005.4 hPa | 0 mm | - | - | - |
| 1776935173 | 3.33° C | 43% | 1005.3 hPa | 0 mm | - | - | - |
| 1776935113 | 3.89° C | 42% | 1005.2 hPa | 0 mm | - | - | - |
| 1776935053 | 3.89° C | 43% | 1005.2 hPa | 0 mm | - | - | - |
| 1776934993 | 3.33° C | 42% | 1005.3 hPa | 0 mm | - | - | - |
| 1776934933 | 4.44° C | 41% | 1005.4 hPa | 0 mm | - | - | - |
| 1776934873 | 3.89° C | 43% | 1005.3 hPa | 0 mm | - | - | - |
| 1776934813 | 3.89° C | 42% | 1005.3 hPa | 0 mm | - | - | - |
| 1776934753 | 3.89° C | 42% | 1005.2 hPa | 0 mm | - | - | - |
| 1776934693 | 3.33° C | 43% | 1005.2 hPa | 0 mm | - | - | - |
| 1776934633 | 3.33° C | 43% | 1005.3 hPa | 0 mm | - | - | - |
| 1776934573 | 2.22° C | 45% | 1005.5 hPa | 0 mm | - | - | - |
* Rain latest hour (hover to see other rain measurements)
** Current wind speed in m/s (hover to see current wind gust speed)